Regional Weather Roundup
Issued by NWS

Home | Current Version | Previous Version | Graphics & Text | Print | Product List | Glossary On
Versions: 1 2 3 4 5 6 7 8 9 10 11 12 13 14 15 16 17 18 19 20 21 22 23 24 25 26 27 28 29 30 31 32 33 34 35 36 37 38 39 40 41 42 43 44 45 46 47 48 49 50
000
ASUS45 KBOU 031807
RWRCO

WEATHER ROUNDUP FOR COLORADO
NATIONAL WEATHER SERVICE DENVER/BOULDER CO
1200 PM MDT MON AUG 03 2015

NOTE: "FAIR" INDICATES FEW OR NO CLOUDS BELOW 12000 FEET WITH NO
SIGNIFICANT WEATHER AND/OR OBSTRUCTIONS TO VISIBILITY.

COZ001>005-013-030-031-031900-
...NORTHWEST COLORADO...

CITY           SKY/WX    TMP DP  RH WIND       PRES   REMARKS
CRAIG          CLOUDY    70  54  56 E6        30.18F
HAYDEN         CLOUDY    64  50  59 SW5       30.21S
MEEKER         CLOUDY    75  51  43 S13       30.18F
MOUNT WERNER   NOT AVBL
STEAMBOAT SPGS   N/A     69  50  49 CALM      30.22S
WALDEN         MOSUNNY   70  37  30 CALM      30.28F
$$

COZ006>008-011-031900-
...WEST CENTRAL VALLEYS...

CITY           SKY/WX    TMP DP  RH WIND       PRES   REMARKS
GRAND JUNCTION PTSUNNY   77  54  44 VRB5      30.10S
MONTROSE       MOSUNNY   77  55  46 VRB5      30.19F
EAGLE          PTSUNNY   66  54  63 CALM      30.26S
RIFLE          PTSUNNY   72  56  57 N3        30.16F
DELTA          PTSUNNY   80  53  38 SE6       30.15F
NUCLA          MOSUNNY   73  57  56 W3        30.25S
$$

COZ017>023-064>068-031900-
...SOUTHWEST COLORADO...

CITY           SKY/WX    TMP DP  RH WIND       PRES   REMARKS
DURANGO        MOSUNNY   74  51  44 SW6G16    30.27S
CORTEZ         SUNNY     76  53  44 S7        30.22S
PAGOSA SPRINGS MOSUNNY   69  48  47 SW5       30.33S
TELLURIDE      PTSUNNY   64  44  47 CALM      30.43S
WOLF CREEK PAS NOT AVBL
$$

COZ009-010-012-014-032>034-037-058>063-031900-
...CENTRAL COLORADO...

CITY           SKY/WX    TMP DP  RH WIND       PRES   REMARKS
ASPEN          CLOUDY    62  52  69 SE6       30.31F
BUENA VISTA    CLOUDY    66  40  39 CALM      30.32S
COPPER MTN     CLOUDY    54  37  54 S13       30.59R
BERTHOUD PASS  CLOUDY    41  32  70 SE18G26   30.63S THUNDER
COTTONWOOD PAS CLOUDY    63  46  55 NW6       30.44F
GUNNISON       PTSUNNY   66  48  52 CALM      30.35F
KREMMLING      CLOUDY    70  41  35 SW12      30.28S
LEADVILLE      CLOUDY    56  42  59 S6        30.43F
MONARCH PASS   CLOUDY    50  43  76 W13       30.69S
SALIDA         CLOUDY    70  47  44 N5        30.35F
SUNLIGHT       PTSUNNY   59  52  77 CALM      30.52F
WILKERSON PASS NOT AVBL
$$

COZ069>075-031900-
...SAN LUIS VALLEY/SANGRE DE CRISTO MOUNTAINS...

CITY           SKY/WX    TMP DP  RH WIND       PRES   REMARKS
ALAMOSA        MOSUNNY   68  51  54 CALM      30.29F
LA VETA PASS   MOSUNNY   59  50  72 MISG      30.46S
SAGUACHE       PTSUNNY   68  52  56 W7        30.32F
$$

COZ035-036-038>040-031900-
...NORTHERN COLORADO FRONT RANGE...

CITY           SKY/WX    TMP DP  RH WIND       PRES   REMARKS
DENVER INTL AP CLOUDY    82  48  30 VRB3      30.11S
DMNS CITY PARK   N/A     81  50  33 SE6       30.11S
AURORA         PTSUNNY   82  48  30 SE7       30.13F
FRONT RANGE AP PTSUNNY   82  41  23 SE13      30.12F
ERIE MUNI ARPT CLOUDY    80  51  36 CALM      30.10S
BOULDER MUN AP CLOUDY    77  52  41 CALM      30.11S
CENTENNIAL     CLOUDY    78  50  37 NE6       30.14S
BROOMFIELD     CLOUDY    79  48  34 CALM      30.14S
FORT COLLINS   CLOUDY    75  55  50 SW9       30.09S
LONGMONT       CLOUDY    80  50  35 SW3       30.11S
$$

COZ041-046-047-076>085-087-088-031900-
...PIKES PEAK/PALMER DIVIDE AND SOUTHERN FOOTHILLS...

CITY           SKY/WX    TMP DP  RH WIND       PRES   REMARKS
COLO. SPRINGS  CLOUDY    75  58  55 E6        30.18F
A. F. ACADEMY  CLOUDY    75  54  48 VRB6      30.19F
ELLICOTT       CLOUDY   N/A N/A N/A E5        30.16F
FALCON         CLOUDY    73  57  59 CALM      30.24S
FORT CARSON    NOT AVBL
LIMON          CLOUDY    80  51  36 SE9       30.13S
MONUMENT HILL  CLOUDY    68  55  64 CALM      30.24
TRINIDAD       PTSUNNY   79  52  38 W5        30.14S
$$

COZ042>045-048>051-090-091-031900-
...NORTHEAST COLORADO...

CITY           SKY/WX    TMP DP  RH WIND       PRES   REMARKS
GREELEY ARPT   CLOUDY    84  57  39 S7        30.07F
AKRON          CLOUDY    80  63  55 SE8       30.08F
BURLINGTON     PTSUNNY   86  51  29 E10       30.06S
WRAY           PTSUNNY   84  61  45 E12       30.03F
STERLING       CLOUDY    88  57  35 SW9       30.01F
HOLYOKE        PTSUNNY   86  63  45 SE10      30.03F
FORT MORGAN    CLOUDY    81  57  44 SE5       30.07S
$$

COZ086-089-092>099-031900-
...SOUTHEAST COLORADO...

CITY           SKY/WX    TMP DP  RH WIND       PRES   REMARKS
PUEBLO         CLOUDY    79  55  43 S6        30.08R
LA JUNTA       PTSUNNY   87  55  33 CALM      30.02F
LAMAR          MOSUNNY   87  63  44 E10       29.97F
SPRINGFIELD      N/A     86  56  35 SE13G20   30.03F
$$



USA.gov is the U.S. government's official web portal to all federal, state and local government web resources and services.